Location: ?
(35.4554°N, 139.3092°E)
Time: 21:48:12
(UTC+00:00)

CZ-4B R/B - Pass Details

Date: 21 April 2021
Orbit: 496 x 645 km, 97.8° (Epoch: 10 May)

Event Time Altitude Azimuth Distance (km) Brightness Sun altitude
Rises 19:28:17 0° 14° (NNE) 2,871 8.0 -7.3°
Reaches altitude 10° 19:30:27 10° 17° (NNE) 1,983 7.2 -6.9°
Maximum altitude 19:34:47 72° 101° (E) 666 4.4 -6.1°
Drops below altitude 10° 19:39:12 10° 186° (S) 2,024 6.5 -5.2°
Sets 19:41:25 0° 189° (S) 2,936 7.3 -4.8°
